Location: *
(40.3688°S, 176.3160°E)
Time: 16:39:28
(UTC+00:00)

Daily predictions for brighter satellites

Satellite Brightness Start Highest point End
(mag) Time Altitude Azimuth Time Altitude Azimuth Time Altitude Azimuth
Resurs 1-4 Rocket 4.3 12:07:26 21° SSE 12:07:26 21° SSE 12:09:47 10° S
Cosmos 2333 Rocket 4.1 12:10:44 10° S 12:13:42 27° SSE 12:13:42 27° SSE
ATLAS 2AS CENTAUR R/B 4.0 12:22:26 10° SW 12:25:38 32° SW 12:25:38 32° SW
Cosmos 2219 Rocket 4.0 12:29:28 10° SSW 12:32:15 28° S 12:32:15 28° S
Cosmos 2237 Rocket 4.0 12:42:07 10° S 12:46:13 25° SE 12:46:13 25° SE
CZ-2D R/B 3.8 12:50:58 30° S 12:50:58 30° S 12:53:47 10° S
Lacrosse 5 3.9 13:14:03 25° SSE 13:14:03 25° SSE 13:16:37 10° SSE
CZ-3B R/B 3.8 13:38:04 62° W 13:39:08 67° SW 13:43:39 10° SE
SL-16 R/B 4.1 13:36:17 10° S 13:41:06 27° SE 13:45:13 13° ENE
S3M 4.4 13:43:29 60° ESE 13:43:29 60° ESE 13:49:02 10° SSE
Cosmos 2227 Rocket 3.0 13:45:57 48° SE 13:45:57 48° SE 13:50:05 10° SSE
Resurs 1-4 Rocket 4.2 13:48:31 19° SW 13:48:31 19° SW 13:50:03 10° SSW
Cosmos 2297 Rocket 2.9 13:50:51 52° SSE 13:50:51 52° SSE 13:55:07 10° SSE
ARIANE 5 R/B 3.6 13:51:16 41° S 13:51:16 41° S 13:54:43 10° S
Cosmos 2098 Rocket 4.4 13:52:08 10° S 13:55:50 48° SSE 13:55:50 48° SSE
ADEOS II 3.1 14:11:56 40° SSW 14:11:56 40° SSW 14:15:18 10° SSW
ATLAS CENTAUR R/B 4.0 14:13:50 14° S 14:13:50 14° S 14:14:32 10° S
Cosmos 407 Rocket 4.1 14:08:44 10° SSW 14:12:56 53° S 14:12:56 53° S
H-2A R/B 4.5 14:12:00 10° ESE 14:14:27 15° E 14:14:58 15° ENE
Cosmos 1190 Rocket 4.5 14:09:15 10° SSW 14:13:55 60° SSE 14:13:55 60° SSE
SL-08 ROCKET BODY 4.4 14:11:00 10° S 14:16:57 77° ESE 14:16:57 77° ESE
GEOS 3 Rocket 3.9 14:12:40 10° SE 14:17:15 63° ESE 14:17:15 63° ESE
SL-16 R/B 3.6 14:12:42 10° SSE 14:18:27 37° E 14:20:33 30° NE
Cosmos 1300 Rocket 4.4 14:30:27 48° ESE 14:30:27 48° ESE 14:34:11 10° SSE
Cosmos 2219 4.4 14:31:19 30° SW 14:31:19 30° SW 14:35:52 10° S
Cosmos 2237 Rocket 3.7 14:25:40 10° SW 14:28:00 24° SW 14:28:00 24° SW
Okean 2 Rocket 3.9 14:32:17 49° SSE 14:32:17 49° SSE 14:35:37 10° S
IDEFIX/ARIANE 42P 3.6 14:35:11 18° NE 14:38:43 45° ESE 14:43:42 10° S
Cosmos 1441 Rocket 4.3 14:39:46 45° SE 14:39:46 45° SE 14:42:45 10° SSE
Cosmos 1420 Rocket 4.2 14:39:36 61° NE 14:39:56 63° ENE 14:45:08 10° SSE
UNK 4.1 14:36:53 10° SSE 14:41:35 58° E 14:41:46 57° ENE
Meteor 2-21 Rocket 4.4 14:37:55 10° SSW 14:44:04 67° W 14:44:21 66° WNW
Cosmos 1536 Rocket 4.0 14:44:22 10° S 14:48:48 60° E 14:49:14 56° ENE
Cosmos 1975 4.0 14:51:37 35° SSW 14:51:37 35° SSW 14:54:10 10° S
Cosmos 1954 Rocket 4.1 14:46:20 10° SSW 14:51:46 79° ESE 14:54:12 33° NNE
Cosmos 1140 Rocket 3.4 14:48:04 10° SSW 14:53:17 74° W 14:53:17 74° W
Cosmos 1709 Rocket 3.8 14:49:40 10° S 14:55:50 73° W 14:57:17 53° NNW
Lacrosse 5 4.3 14:53:20 10° SW 14:56:09 14° SSW 14:58:57 10° SSE
Cosmos 2263 Rocket 3.8 14:53:15 17° NNE 14:56:32 29° ENE 15:01:20 10° SE
Unknown 4.5 14:59:22 39° S 14:59:22 39° S 15:02:25 10° SE
Unknown 4.3 15:03:52 45° NE 15:03:52 45° NE 15:07:51 10° ESE
Unknown 4.2 15:05:30 46° NE 15:05:30 46° NE 15:09:33 10° ESE
Unknown 4.1 15:07:06 48° NE 15:07:09 49° NE 15:11:14 10° ESE
Cosmos 2056 Rocket 4.4 15:07:36 33° WSW 15:07:41 33° WSW 15:12:31 10° S
Unknown 4.1 15:08:43 50° NE 15:08:49 50° NE 15:12:55 10° ESE
PSLV R/B 3.6 15:08:50 42° NNE 15:10:13 77° ESE 15:14:33 10° S
Unknown 3.9 15:11:54 53° NNE 15:12:08 54° NE 15:16:16 10° ESE
Lacrosse 5 rocket 4.5 15:10:08 10° SSW 15:12:51 15° SSE 15:15:30 10° SE
Unknown 3.9 15:13:33 55° NNE 15:13:50 57° NE 15:17:59 10° ESE
Shenzhou-11 Module 3.8 15:16:20 25° E 15:16:20 25° E 15:17:45 10° E
Unknown 3.8 15:15:05 55° NNE 15:15:26 58° NE 15:19:35 10° ESE
Unknown 3.8 15:16:38 55° NNE 15:17:03 58° NE 15:21:13 10° ESE
Unknown 3.8 15:17:47 57° N 15:18:15 62° NE 15:22:26 10° ESE
Iridium 2 4.3 15:20:03 44° SW 15:20:03 44° SW 15:23:09 10° S
Unknown 3.9 15:19:39 53° N 15:20:13 59° NE 15:24:23 10° ESE
Cosmos 1818 4.5 15:20:54 30° WSW 15:22:04 33° SW 15:26:57 10° SSE
Unknown 3.8 15:22:53 53° N 15:23:34 63° NE 15:27:45 10° ESE
Unknown 3.8 15:24:28 53° N 15:25:12 65° NE 15:29:24 10° SE
SL-16 R/B 2.4 15:19:58 10° SW 15:25:23 45° WNW 15:26:55 37° NW
Unknown 4.2 15:25:51 37° SW 15:26:21 39° SSW 15:30:03 10° SE
CZ-4C R/B 3.6 15:23:24 10° SSE 15:26:35 48° E 15:27:23 37° NE
Unknown 3.6 15:26:18 56° NNW 15:27:05 74° NE 15:31:18 10° SE
Unknown 3.7 15:27:40 52° NNW 15:28:32 70° NE 15:32:44 10° SE
Cosmos 2227 Rocket 3.8 15:27:46 18° WSW 15:29:01 19° SW 15:33:00 10° S
Cosmos 2151 Rocket 4.3 15:29:10 36° WSW 15:29:13 36° WSW 15:33:26 10° S
Unknown 3.7 15:29:14 51° NNW 15:30:09 73° NE 15:34:23 10° SE
ADEOS 3.6 15:28:49 28° NNW 15:31:28 57° W 15:36:42 10° SSW
Cosmos 1741 Rocket 4.3 15:27:28 10° SSW 15:32:49 72° ESE 15:38:07 10° NNE
Unknown 3.6 15:32:29 49° NNW 15:33:32 77° NE 15:37:45 10° SE
Cosmos 2074 Rocket 4.0 15:27:30 10° S 15:33:55 89° E 15:40:14 10° N
Cosmos 2297 Rocket 4.0 15:32:39 15° WSW 15:34:08 17° SW 15:37:43 10° S
DEBRIS 3.8 15:33:57 23° SSW 15:34:35 25° S 15:38:01 10° SE
Unknown 3.6 15:34:03 48° NW 15:35:10 80° NE 15:39:24 10° SE
Unknown 3.6 15:35:40 46° NW 15:36:51 82° NE 15:41:05 10° SE
Cosmos 2227 4.2 15:34:15 28° NNW 15:37:25 88° WSW 15:43:11 10° SSE
Unknown 3.6 15:37:15 45° NW 15:38:29 85° NE 15:42:44 10° SE
Unknown 3.6 15:40:30 42° NW 15:41:53 89° SSW 15:46:07 10° SE
Unknown 3.6 15:41:37 41° NW 15:43:02 85° SW 15:47:16 10° SE
Unknown 3.6 15:42:16 40° WNW 15:43:41 77° SW 15:47:55 10° SE
Unknown 3.8 15:43:10 38° W 15:44:30 59° SW 15:48:34 10° SE
Unknown 3.6 15:43:54 39° WNW 15:45:23 77° SW 15:49:37 10° SE
Meteor 1-4 Rocket 2.5 15:42:30 10° S 15:46:19 89° WNW 15:50:00 10° N
OAO 2 Rocket 3.9 15:45:11 30° NW 15:47:06 42° N 15:51:51 10° ENE
Unknown 3.6 15:46:15 37° WNW 15:47:47 70° SW 15:51:58 10° SE
Unknown 3.6 15:46:53 36° WNW 15:48:30 80° SW 15:52:45 10° SE
SL-24 R/B - RUBIN 2 4.3 15:46:00 26° NW 15:49:32 69° WSW 15:55:10 10° SSE
Geosat 4.2 15:44:43 10° SSE 15:49:48 69° ENE 15:54:02 15° NNW
PAYLOAD A 4.1 15:44:58 10° N 15:50:22 78° WNW 15:55:54 10° SSW
H-2A R/B 2.4 15:46:39 10° S 15:50:37 42° WSW 15:52:04 31° WNW
Unknown 3.6 15:50:02 34° WNW 15:51:48 75° SW 15:56:02 10° SE
Cosmos 1707 2.6 15:48:48 10° SSW 15:52:44 68° W 15:56:38 10° N
COSMOS 2441 4.3 15:48:18 10° N 15:53:07 64° W 15:57:58 10° SSW
Unknown 3.7 15:51:40 32° WNW 15:53:30 73° SW 15:57:43 10° SE
Unknown 3.7 15:53:14 31° WNW 15:55:08 71° SW 15:59:22 10° SE
MSX 3.9 15:49:54 10° N 15:55:33 55° W 16:01:17 10° SSW
Cosmos 389 Rocket 2.9 15:52:43 10° SSW 15:56:04 39° W 15:57:01 32° NW
Cosmos 1025 Rocket 4.0 15:53:01 10° SSW 15:56:41 26° W 15:57:11 25° W
Unknown 3.7 15:54:50 30° WNW 15:56:48 68° SW 16:01:01 10° SE
Landsat 5 3.4 15:53:33 10° SSE 15:57:42 88° WSW 16:01:29 13° NNW
Cosmos 1943 3.5 15:53:09 10° SSW 15:58:53 71° ESE 16:04:34 10° NNE
SL-4 R/B 3.8 15:55:16 10° SW 15:59:07 34° SSE 16:03:13 10° E
Cosmos 1452 Rocket 4.4 15:57:01 23° WNW 15:59:17 32° WSW 16:04:05 10° S
SL-16 R/B 3.3 15:56:23 10° S 16:01:58 35° WSW 16:05:39 19° WNW
CZ-4C R/B 4.1 15:57:56 10° SSW 16:02:55 29° SE 16:07:17 10° ENE
Unknown 3.9 16:01:12 26° WNW 16:03:27 61° SW 16:07:38 10° SE
SJ-6F 4.4 15:59:53 10° N 16:03:57 65° WNW 16:08:05 10° SSW
Meteor PRIRODA 4.5 16:01:15 10° NNE 16:04:53 54° ESE 16:08:32 10° S
Unknown 3.9 16:02:51 25° WNW 16:05:09 59° SW 16:09:20 10° SE
Cosmos 371 Rocket 3.5 16:01:48 10° N 16:06:42 75° ENE 16:11:39 10° SSE
Unknown 3.9 16:04:23 24° WNW 16:06:46 57° SW 16:10:56 10° SE
OAO 3 Rocket 4.1 16:04:17 20° NW 16:06:55 35° NNE 16:11:15 10° ENE
Nadezhda 1 Rocket 4.0 16:01:14 10° NNW 16:07:30 68° W 16:13:45 10° S
H-2A R/B 3.2 16:03:38 10° NNW 16:07:51 38° W 16:12:07 10° SSW
CZ-4B R/B 2.0 16:04:46 10° SSE 16:08:20 61° E 16:11:48 10° N
Unknown 4.0 16:06:00 23° WNW 16:08:27 55° SW 16:12:36 10° SE
Cosmos 1674 4.3 16:05:32 10° S 16:09:08 37° ESE 16:12:40 10° NNE
Unknown 4.0 16:07:36 22° WNW 16:10:07 54° SW 16:14:16 10° SE
Meteor 2-5 Rocket 4.4 16:04:47 10° S 16:10:21 58° ESE 16:15:54 10° NNE
Unknown 4.1 16:10:48 20° WNW 16:13:28 51° SSW 16:17:35 10° SE
ATLAS 5 CENTAUR R/B 2.9 16:07:35 10° NNW 16:14:41 73° ENE 16:21:19 10° SE
SeaSat 1 2.8 16:09:57 10° NE 16:14:52 72° ESE 16:19:51 10° SSW
Starlink (trailer) 4.1 16:12:22 19° WNW 16:15:06 50° SSW 16:19:14 10° SE
In-Cosmos 22 4.0 16:09:52 10° SSW 16:15:17 79° W 16:20:35 10° N
PSLV R/B 4.2 16:12:32 10° NNE 16:16:23 69° ESE 16:20:22 10° S
SL-08 R/B 3.8 16:11:53 10° S 16:16:33 43° WSW 16:20:37 13° NW
Unknown 4.2 16:13:59 19° WNW 16:16:47 48° SSW 16:20:54 10° SE
Okean 1 Rocket 4.2 16:15:23 18° WNW 16:17:26 25° WSW 16:21:06 10° SSW
Cosmos 1766 3.8 16:13:29 10° N 16:17:28 63° E 16:21:31 10° SSE
Unknown 4.2 16:15:35 18° WNW 16:18:28 47° SSW 16:22:33 10° SE
IDEFIX/ARIANE 42P 3.7 16:15:59 16° NW 16:18:30 22° W 16:22:30 10° SW
Cosmos 1607 4.5 16:15:46 16° WNW 16:20:41 46° SW 16:26:53 10° SSE
MOS 1-B 4.5 16:15:39 10° NNE 16:21:28 84° ESE 16:27:21 10° SSW
CZ-2C R/B 2.6 16:17:02 10° N 16:21:45 47° W 16:26:22 10° SSW
Cosmos 1805 3.6 16:18:12 10° N 16:22:08 71° E 16:26:08 10° SSE
Cosmos 1110 Rocket 4.1 16:17:22 11° NNW 16:22:13 58° WSW 16:27:26 10° SSE
Timation 1 Rocket 4.4 16:17:01 10° NNW 16:23:01 76° WSW 16:29:07 10° SSE
Unknown 4.4 16:21:21 15° W 16:24:29 42° SSW 16:28:32 10° SE
Unknown 4.4 16:21:58 15° W 16:25:07 42° SSW 16:29:10 10° SE
Unknown 4.4 16:23:19 15° W 16:26:33 41° SSW 16:30:34 10° SE
Unknown 4.5 16:25:10 14° W 16:28:27 40° SSW 16:32:26 10° SE
CZ-4B R/B 3.0 16:25:20 10° N 16:28:48 42° W 16:32:21 10° SSW
Cosmos 962 Rocket 4.5 16:24:56 10° S 16:31:10 86° W 16:37:23 10° N
Cosmos 405 Rocket 4.2 16:32:29 13° WNW 16:34:45 19° WSW 16:37:36 10° SSW
Meteor 1-28 Rocket 3.2 16:30:57 10° S 16:34:49 81° W 16:38:38 10° NNW
Abrixas rocket 4.0 16:32:50 10° NNW 16:35:20 23° NE 16:37:52 10° E
Cosmos 2181 Rocket 4.1 16:31:16 10° N 16:37:25 81° E 16:43:39 10° S
FALCON 9 R/B 3.0 16:35:08 11° NW 16:37:30 20° N 16:42:10 10° NE
Meteor 1-31 Rocket 3.4 16:34:36 10° NNW 16:38:08 33° W 16:41:44 10° SSW
Cosmos 2084 3.7 16:34:45 10° NNW 16:38:53 69° ENE 16:43:08 10° SE
Cosmos 2154 Rocket 4.3 16:33:37 10° SSW 16:39:39 47° W 16:45:34 10° NNW
Cosmos 2263 Rocket 2.8 16:35:04 10° NW 16:40:16 39° WSW 16:45:34 10° S
Lacrosse 5 4.5 16:38:42 10° SSW 16:41:11 13° S 16:43:40 10° SE
Meteor 1-22 Rocket 4.3 16:38:57 10° N 16:44:25 90° NW 16:50:14 10° S
USA 215 3.4 16:38:51 10° NE 16:45:25 88° SE 16:52:04 10° SW
Cosmos 1892 Rocket 4.1 16:41:49 10° SSW 16:46:04 40° W 16:50:17 10° NNW
Shenzhou-11 Module 2.4 16:47:39 10° W 16:50:22 51° S 16:53:06 10° ESE
Lacrosse 5 rocket 2.5 16:48:33 10° SW 16:53:03 52° SE 16:57:18 10° ENE
ATLAS CENTAUR R/B 2.8 16:52:09 10° WNW 16:53:07 12° NW 16:54:16 10° NNW
Cosmos 724 4.4 16:47:57 10° NW 16:53:46 71° WSW 16:59:45 10° SSE
Cosmos 1484 Rocket 3.0 16:50:19 10° N 16:54:15 54° W 16:58:17 10° SSW
KORONAS-FOTON 3.8 16:51:41 10° SSW 16:55:35 61° W 16:59:22 10° N
CZ-3 R/B 4.4 16:51:26 10° NNW 17:00:52 17° N 17:05:53 10° NE
